Tracking 19827 objects as of 21-Aug-2019
HD Live streaming from Space Station
objects crossing your sky now

MOLNIYA 1-80

Track MOLNIYA 1-80 now!
MOLNIYA 1-80 is classified as:


NORAD ID: 21118
Int'l Code: 1991-012A
Perigee: 1,930.2 km
Apogee: 37,637.0 km
Inclination: 63.9 °
Period: 701.6 minutes
Semi major axis: 26154 km
RCS: 6.3095 m2 (large)
Launch date: February 15, 1991
Source: Commonwealth of Independent States (former USSR) (CIS)
Launch site: PLESETSK MISSILE AND SPACE COMPLEX (PKMTR)
aabbcc
Your satellite tracking list
Your tracking list is empty




NASA's NSSDC Master Catalog

Two Line Element Set (TLE):
1 21118U 91012A   19231.69908065 -.00000471  00000-0 -18577-1 0  9998
2 21118  63.8570  91.5313 6826117 288.2394  12.5405  2.05249146209802
Source of the keplerian elements: AFSPC